Logan, UT

9:55 PM MDT on June 25, 2017 (GMT -0600)
Logan-Cache

Weather History for KLGU - December, 2012

Change the Weather History Date:

Wednesday, December 26, 2012

  Actual Average Record
Temperature  
Mean Temperature 18 °F -  
Max Temperature 21 °F 27 °F 48 °F (1971)
Min Temperature 14 °F 10 °F -16 °F (1987)
Degree Days  
Heating Degree Days 48    
Moisture  
Dew Point 17 °F    
Average Humidity 90    
Maximum Humidity 96    
Minimum Humidity 79    
Precipitation  
Precipitation 0.01 in - - ()
Sea Level Pressure  
Sea Level Pressure 29.77 in    
Wind  
Wind Speed 0 mph (WSW)    
Max Wind Speed 4 mph    
Max Gust Speed -    
Visibility 2 miles    
Events Fog , Snow    
Averages and records for this station are not official NWS values.
T = Trace of Precipitation, MM = Missing Value Source: NWS Daily Summary

Daily Weather History Graph

Daily Weather History Graph

Search for Another Location

Airport or City:

Trip Planner

Search our weather history database for the weather conditions in past years. The results will help you decide how hot, cold, wet, or windy it might be!

Date:

Astronomy

Dec. 26, 2012 Rise Set
Actual Time 7:53 AM MST 5:03 PM MST
Civil Twilight 7:22 AM MST 5:34 PM MST
Nautical Twilight 6:46 AM MST 6:09 PM MST
Astronomical Twilight 6:13 AM MST 6:43 PM MST
Moon 3:59 PM MST 6:19 AM MST
Length of Visible Light 10h 12m
Length of Day
9h 09m
Waxing Gibbous, 98% of the Moon is Illuminated
Dec 26
Waxing Gibbous
Dec 28
Full
Jan 4
Last Quarter
Jan 11
New
Jan 18
First Quarter

Hourly Weather History & Observations

Time (MST) Temp. Windchill Dew Point Humidity Pressure Visibility Wind Dir Wind Speed Gust Speed Precip Events Conditions
12:51 AM 14.0 °F - 10.0 °F 84% 30.05 in 8.0 mi Calm Calm - N/A   Overcast
1:51 AM 14.0 °F - 10.9 °F 88% 30.01 in 8.0 mi Calm Calm - N/A   Overcast
3:51 AM 15.1 °F - 12.0 °F 88% 29.97 in 9.0 mi Calm Calm - N/A   Overcast
4:51 AM 16.0 °F - 12.9 °F 88% 29.93 in 3.0 mi Calm Calm - 0.00 in Snow Light Snow
5:09 AM 15.8 °F - 12.2 °F 86% 29.78 in 2.5 mi Calm Calm - 0.00 in Snow Light Snow
5:15 AM 15.8 °F - 12.2 °F 86% 29.78 in 3.0 mi Calm Calm - 0.00 in Snow Light Snow
6:45 AM 15.8 °F - 12.2 °F 86% 29.76 in 2.5 mi Calm Calm - 0.00 in Snow Light Snow
6:51 AM 16.0 °F - 12.9 °F 88% 29.90 in 2.0 mi Calm Calm - 0.00 in Snow Light Snow
7:05 AM 17.6 °F - 12.2 °F 79% 29.75 in 3.0 mi Calm Calm - 0.00 in Snow Light Snow
7:51 AM 17.1 °F - 14.0 °F 88% 29.89 in 2.5 mi Calm Calm - 0.00 in Snow Light Snow
7:58 AM 17.6 °F - 14.0 °F 86% 29.74 in 1.8 mi Calm Calm - 0.00 in Snow Light Snow
8:17 AM 17.6 °F - 14.0 °F 86% 29.74 in 0.8 mi Calm Calm - 0.00 in Snow Light Snow
8:24 AM 17.6 °F - 14.0 °F 86% 29.73 in 1.0 mi Calm Calm - 0.00 in Snow Light Snow
8:51 AM 18.0 °F - 15.1 °F 88% 29.88 in 1.5 mi Calm Calm - 0.00 in Snow Light Snow
9:35 AM 17.6 °F - 15.8 °F 93% 29.73 in 2.0 mi Calm Calm - 0.00 in Snow Light Snow
9:51 AM 18.0 °F - 15.1 °F 88% 29.88 in 3.0 mi Calm Calm - 0.00 in Snow Light Snow
9:58 AM 17.6 °F - 15.8 °F 93% 29.73 in 2.5 mi Calm Calm - 0.00 in Snow Light Snow
10:04 AM 17.6 °F - 15.8 °F 93% 29.74 in 2.0 mi Calm Calm - 0.00 in Snow Light Snow
10:10 AM 17.6 °F - 15.8 °F 93% 29.74 in 1.8 mi Calm Calm - 0.00 in Snow Light Snow
10:25 AM 19.4 °F - 17.6 °F 93% 29.73 in 1.0 mi Calm Calm - 0.00 in Snow Light Snow
10:30 AM 19.4 °F - 17.6 °F 93% 29.73 in 0.5 mi Calm Calm - 0.00 in Fog , Snow Snow
10:51 AM 19.0 °F - 18.0 °F 96% 29.87 in 0.8 mi Calm Calm - 0.00 in Snow Light Snow
10:55 AM 19.4 °F - 17.6 °F 93% 29.73 in 1.0 mi Calm Calm - 0.00 in Snow Light Snow
11:18 AM 19.4 °F - 17.6 °F 93% 29.73 in 0.8 mi Calm Calm - 0.00 in Snow Light Snow
11:26 AM 19.4 °F - 17.6 °F 93% 29.72 in 1.2 mi Calm Calm - 0.00 in Snow Light Snow
11:36 AM 21.2 °F - 19.4 °F 93% 29.72 in 2.0 mi Calm Calm - 0.00 in Snow Light Snow
11:41 AM 21.2 °F - 17.6 °F 86% 29.71 in 1.8 mi Calm Calm - 0.00 in Snow Light Snow
11:51 AM 19.9 °F - 18.0 °F 92% 29.84 in 2.0 mi Calm Calm - 0.00 in Snow Light Snow
12:29 PM 19.4 °F - 17.6 °F 93% 29.69 in 1.8 mi Calm Calm - 0.00 in Snow Light Snow
12:51 PM 19.9 °F - 17.1 °F 89% 29.81 in 2.0 mi Calm Calm - 0.00 in Snow Light Snow
12:57 PM 19.4 °F - 17.6 °F 93% 29.68 in 1.8 mi Calm Calm - 0.00 in Snow Light Snow
1:44 PM 21.2 °F - 17.6 °F 86% 29.67 in 1.5 mi Calm Calm - 0.00 in Snow Light Snow
1:51 PM 21.0 °F - 17.1 °F 85% 29.79 in 1.8 mi Calm Calm - 0.00 in Snow Light Snow
2:18 PM 21.2 °F - 17.6 °F 86% 29.66 in 1.8 mi Calm Calm - 0.00 in Snow Light Snow
2:38 PM 21.2 °F - 17.6 °F 86% 29.66 in 2.0 mi Calm Calm - 0.00 in Snow Light Snow
2:51 PM 21.0 °F - 18.0 °F 88% 29.78 in 2.0 mi Calm Calm - 0.00 in Snow Light Snow
2:59 PM 21.2 °F - 17.6 °F 86% 29.66 in 1.8 mi Calm Calm - 0.00 in Snow Light Snow
3:59 PM 21.2 °F - 17.6 °F 86% 29.67 in 0.8 mi Calm Calm - 0.00 in Snow Light Snow
4:51 PM 21.0 °F - 18.0 °F 88% 29.79 in 1.0 mi Calm Calm - 0.00 in Snow Light Snow
5:23 PM 21.2 °F - 17.6 °F 86% 29.68 in 2.0 mi Calm Calm - 0.00 in Snow Light Snow
5:51 PM 21.0 °F - 18.0 °F 88% 29.80 in 2.5 mi Calm Calm - 0.00 in Snow Light Snow
5:56 PM 21.2 °F - 17.6 °F 86% 29.69 in 3.0 mi Calm Calm - 0.00 in Snow Light Snow
6:18 PM 21.2 °F - 19.4 °F 93% 29.69 in 5.0 mi Calm Calm - 0.00 in   Overcast
6:41 PM 21.2 °F - 17.6 °F 86% 29.69 in 2.0 mi Calm Calm - 0.00 in Snow Light Snow
6:51 PM 21.0 °F - 18.0 °F 88% 29.81 in 1.8 mi Calm Calm - 0.00 in Snow Light Snow
7:13 PM 21.2 °F - 19.4 °F 93% 29.69 in 2.0 mi Calm Calm - 0.00 in Snow Light Snow
7:18 PM 21.2 °F - 19.4 °F 93% 29.69 in 2.0 mi Calm Calm - 0.00 in Snow Light Snow
7:51 PM 21.0 °F 16.2 °F 19.0 °F 92% 29.81 in 2.5 mi WSW 3.5 mph - 0.00 in Snow Light Snow
8:20 PM 21.2 °F - 19.4 °F 93% 29.70 in 1.8 mi Calm Calm - 0.01 in Snow Light Snow
8:27 PM 21.2 °F - 19.4 °F 93% 29.70 in 1.8 mi Calm Calm - 0.01 in Snow Light Snow
8:48 PM 21.2 °F - 19.4 °F 93% 29.70 in 2.0 mi Calm Calm - 0.01 in Snow Light Snow
8:51 PM 21.9 °F - 19.9 °F 92% 29.81 in 2.0 mi Calm Calm - 0.01 in Snow Light Snow
9:12 PM 21.2 °F - 19.4 °F 93% 29.71 in 2.0 mi Calm Calm - 0.00 in Snow Light Snow
9:17 PM 21.2 °F - 19.4 °F 93% 29.71 in 1.8 mi Calm Calm - 0.00 in Snow Light Snow
9:51 PM 21.9 °F - 19.9 °F 92% 29.82 in 1.5 mi Calm Calm - 0.00 in Snow Light Snow
10:51 PM 21.9 °F - 19.9 °F 92% 29.83 in 1.5 mi Calm Calm - 0.00 in Snow Light Snow
11:38 PM 21.2 °F - 19.4 °F 93% 29.74 in 2.0 mi Calm Calm - 0.00 in Snow Light Snow
11:51 PM 21.9 °F - 19.9 °F 92% 29.84 in 2.0 mi Calm Calm - 0.00 in Snow Light Snow